TIME,DELAY(SENSOR),PRES,T(CTD),SAL,OXYGEN,RAWTEMP,T(OPTODE),TCPHASE,FLUOR,BETA(BETA700),BETA(BETA412),BETA(BETA440),CDOM,C(CSC),ED(ED411.90),ED(ED443.80),ED(ED489.40),ED(ED554.70),LU(LU412.20),LU(LU443.80),LU(LU489.40),LU(LU555.00),COMP,TILTX,TILTX(TILTY),CHECK
1371312308,5804,496.8500061035156000,17.8735008239746100,36.5200996398925800,226.3973999023437500,159.3724975585937500,17.8737792968750000,31.2132606506347660,50,102,95,81,67,9912,2146957924,2147513188,2147267876,2147454720,2147082733,2146958363,2147650093,2147132882,301,-1,8,45805
1371312423,5806,486.2099914550781000,17.9594001770019530,36.5329017639160160,226.8117065429687500,156.5422973632812500,17.9592399597167970,31.1544094085693360,50,102,95,81,67,9909,2146958336,2147514322,2147266742,2147451236,2147080557,2146955026,2147649234,2147129124,794,-1,8,35302
1371312540,5805,475.4800109863281000,18.0116996765136720,36.5376014709472660,227.8403015136718800,154.9566040039062500,18.0071296691894530,31.0812797546386720,50,103,94,82,66,9909,2146955812,2147511853,2147266121,2147451190,2147079789,2146951049,2147645595,2147123876,147,-1,8,25091
1371312667,5806,463.7200012207031000,18.0863990783691400,36.5474014282226560,228.7980957031250000,152.4199981689453000,18.0837402343750000,30.9995002746582030,50,102,95,80,67,9905,2146958866,2147512676,2147264813,2147449837,2147080932,2146954230,2147650953,2147128932,318,-1,8,28664
1371312782,5806,453.0100097656250000,18.1275005340576170,36.5508003234863300,229.7194061279297000,150.7608032226562500,18.1338596343994140,30.9314708709716800,50,102,95,81,67,9912,2146956754,2147511323,2147264539,2147453284,2147078829,2146954240,2147648521,2147128923,3418,-1,8,26737
1371312899,5805,442.2900085449219000,18.1851997375488280,36.5509986877441400,232.1641998291015600,149.2299041748047000,18.1801109313964840,30.7907905578613280,50,101,95,80,65,9914,2146954541,2147511350,2147263506,2147446235,2147078336,2146952438,2147648246,2147130121,2930,-1,8,4390
1371313026,5805,430.9299926757812500,18.2324008941650400,36.5536994934082000,235.1425018310547000,147.5758972167968800,18.2300796508789060,30.6246204376220700,50,100,95,81,65,9914,2146959533,2147511945,2147267300,2147450386,2147083410,2146953481,2147649307,2147127122,3470,-1,8,6911
1371313143,5808,420.8299865722656000,18.2982006072998050,36.5553016662597660,238.6275024414062500,145.4895935058593800,18.2931194305419920,30.4305992126464840,50,101,95,80,64,9914,2146958116,2147511323,2147266176,2147447250,2147076498,2146954578,2147647899,2147130569,275,-1,8,400
1371313282,5803,408.9800109863281000,18.3087005615234380,36.5564994812011700,240.2173004150390600,145.0447998046875000,18.3065605163574220,30.3502006530761720,50,101,94,81,65,9915,2146956644,2147511561,2147266066,2147450806,2147073179,2146958546,2147644736,2147127277,122,-1,8,8393
1371313409,5802,398.4200134277344000,18.3491992950439450,36.5555992126464840,242.2891998291015600,143.8215026855468800,18.3435306549072270,30.2375106811523440,51,100,96,79,65,9914,2146958217,2147512009,2147263168,2147449865,2147077522,2146954459,2147647744,2147129929,2917,-1,8,22140
1371313538,5807,387.7699890136719000,18.3801002502441400,36.5550994873046900,244.3170013427734400,142.8105926513672000,18.3740806579589840,30.1305198669433600,50,101,94,81,64,9911,2146955894,2147510994,2147264740,2147449490,2147072813,2146955684,2147649499,2147127890,2640,-1,8,5559
1371313677,5806,376.3900146484375000,18.3994007110595700,36.5545997619628900,247.5384979248047000,142.1441040039062500,18.3942298889160160,29.9751491546630860,50,103,93,81,66,9908,2146955894,2147514989,2147262976,2147447908,2147075693,2146961097,2147642852,2147128804,1910,-1,8,6956
1371313806,5803,365.8599853515625000,18.4097003936767580,36.5528984069824200,251.0547027587890600,141.8157043457031200,18.4041595458984380,29.8137302398681640,50,101,95,80,63,9913,2146956406,2147512219,2147266642,2147449106,2147071268,2146959579,2147652352,2147129298,1678,-1,8,58425
1371313945,5803,354.6600036621094000,18.4468994140625000,36.5546989440918000,255.7807006835937500,140.5092926025390600,18.4436492919921880,29.5890808105468750,50,100,95,82,62,9913,2146957805,2147512045,2147265472,2147446308,2147078829,2146956790,2147648009,2147126930,1004,-1,8,13381
1371314086,5807,343.3200073242187500,18.4662990570068360,36.5588989257812500,257.0416870117187500,139.8941955566406200,18.4622402191162100,29.5265407562255860,50,101,95,80,62,9913,2146955712,2147514550,2147262674,2147449746,2147073362,2146957997,2147650633,2147126592,429,-1,8,56212
1371314225,5805,332.0400085449219000,18.4773006439209000,36.5596008300781250,257.4136047363281000,139.5447998046875000,18.4728107452392580,29.5062007904052730,50,101,94,80,63,9906,2146958985,2147512173,2147265042,2147449481,2147071725,2146959506,2147653549,2147128237,3236,-1,8,64600
1371314352,5805,321.8999938964844000,18.4862003326416000,36.5593986511230500,257.2591857910156000,139.2646026611328000,18.4812793731689450,29.5090198516845700,50,101,95,81,63,9906,2146958235,2147511149,2147266560,2147445878,2147080896,2146959954,2147653787,2147129234,2906,-1,8,20172
1371314505,5806,310.2699890136719000,18.4944000244140620,36.5592994689941400,257.3125000000000000,138.9712066650390600,18.4901504516601560,29.5029201507568360,50,102,94,81,63,9907,2146959990,2147513828,2147266898,2147449910,2147067849,2146962011,2147658340,2147125906,2746,-1,8,63648
1371314656,5807,300.5199890136719000,18.5069007873535160,36.5586013793945300,257.2947998046875000,138.5894927978515600,18.5016899108886720,29.4987792968750000,50,102,95,81,63,9923,2146954998,2147514432,2147263314,2147447296,2147081993,2146961298,2147663122,2147129270,3332,-1,8,44498
1371314805,5805,288.4899902343750000,18.5228004455566400,36.5570983886718750,256.8435974121094000,138.0045013427734400,18.5193805694580080,29.5106697082519530,50,102,95,81,63,9925,2146957522,2147514276,2147265371,2147447753,2147081472,2146965312,2147664027,2147129033,2958,-1,8,10372
1371314932,5807,276.7200012207031000,18.5547008514404300,36.5567016601562500,256.5624084472656000,136.8829956054687500,18.5532894134521500,29.5082492828369140,50,102,95,82,63,9918,2146957293,2147514395,2147266368,2147448100,2147075904,2146965851,2147656969,2147129334,2775,-1,8,10222
1371315049,5802,266.0000000000000000,18.6149005889892580,36.5603981018066400,255.1576995849609400,135.0157928466797000,18.6097507476806640,29.5448093414306640,50,101,95,80,63,9919,2146957083,2147512201,2147265993,2147447954,2147077302,2146970185,2147684882,2147127396,1922,-1,8,4203
1371315164,5804,255.4700012207031200,18.6476001739501950,36.5621986389160160,254.5653076171875000,133.9082031250000000,18.6432495117187500,29.5561199188232420,51,101,94,80,63,9920,2146955145,2147513097,2147266066,2147445513,2147079936,2146981120,2147699026,2147131629,1211,-1,8,57507
1371315291,5805,243.6499938964843800,18.7236995697021500,36.5662994384765600,253.3242950439453000,131.3755950927734400,18.7198600769042970,29.5775108337402340,51,101,96,81,64,9921,2146958226,2147513142,2147265691,2147446189,2147075446,2146987346,2147716873,2147131154,1325,-1,8,44946
1371315408,5805,232.6799926757812500,18.7987003326416000,36.5688018798828100,253.0774993896484400,128.8760070800781200,18.7954807281494140,29.5557308197021500,52,103,96,81,64,9921,2146956342,2147517074,2147268452,2147443456,2147080146,2146998573,2147738230,2147131008,655,-1,8,26273
1371315523,5802,221.9499969482422000,18.8612003326416000,36.5690002441406250,253.6961059570312500,126.8545989990234400,18.8566493988037100,29.5023994445800780,53,108,95,82,63,9913,2146954523,2147516800,2147268617,2147447716,2147076507,2147010358,2147768155,2147135716,3037,-1,8,52402
1371315638,5801,211.0200042724609400,18.9601993560791000,36.5777015686035160,251.2485046386718800,123.3087997436523400,18.9639797210693360,29.5639305114746100,53,112,96,81,65,9914,2146956900,2147515492,2147271780,2147450084,2147083163,2147036699,2147815506,2147139300,2911,-1,8,38841
1371315755,5807,200.0599975585937500,19.0872993469238280,36.5839004516601560,248.5030059814453000,119.3193969726562500,19.0847702026367200,29.6340007781982420,57,105,96,81,65,9914,2146959067,2147519552,2147273133,2147444260,2147089865,2147064036,2147885174,2147144091,2124,-1,8,37090
1371315810,5802,195.0399932861328000,19.1840000152587900,36.5917015075683600,246.5263977050781200,115.3705978393554700,19.2043800354003900,29.6714191436767580,56,105,96,81,65,9908,2146960054,2147514624,2147273691,2147444955,2147087936,2147081517,2147920109,2147143917,1978,-1,8,44056
1371315865,5805,190.2700042724609400,19.2821006774902340,36.6067008972168000,240.5059051513672000,113.0847015380859400,19.2736301422119140,29.9165191650390620,54,102,94,81,66,9919,2146955821,2147516781,2147274441,2147442651,2147090971,2147101632,2147958454,2147147529,1740,-1,8,40469
1371315920,5802,185.6499938964843800,19.3414993286132800,36.6169013977050800,236.5713043212890600,110.2531967163086000,19.3594398498535160,30.0638904571533200,52,102,95,80,66,9920,2146957202,2147518390,2147276736,2147444443,2147097490,2147124498,2147998774,2147145508,1304,-2,8,29735
1371315975,5805,181.1999969482422000,19.4253997802734380,36.6323013305664060,231.2852935791015600,107.9303970336914000,19.4298591613769530,30.2865104675292970,52,102,96,80,67,9917,2146956809,2147516982,2147274166,2147441974,2147093412,2147099090,2147940379,2147148982,780,-1,8,10903
1371316051,5806,175.5599975585937500,19.5382995605468750,36.6449012756347660,226.9613037109375000,104.3340988159179700,19.5389003753662100,30.4510993957519530,51,105,95,82,66,9914,2146958043,2147518555,2147280502,2147445915,2147109394,2147177033,2148095286,2147157056,483,-1,8,33462
1371316106,5803,171.8200073242187500,19.6385002136230470,36.6525993347168000,226.4458007812500000,101.3367996215820300,19.6298198699951170,30.4371604919433600,51,102,98,83,65,9919,2146957129,2147523520,2147282560,2147443355,2147109366,2147195986,2148141037,2147156626,909,-2,8,41442
1371316161,5804,168.0399932861328000,19.7619991302490230,36.6749000549316400,218.3643951416015600,97.2187271118164000,19.7547798156738280,30.7926197052001950,52,104,96,82,67,9918,2146957056,2147524306,2147279424,2147442669,2147115977,2147231606,2148196013,2147158838,406,-1,9,7553
1371316216,5805,164.0399932861328000,19.8080005645751950,36.6799011230468750,212.2604064941406200,95.7001266479492200,19.8008708953857420,31.0944004058837900,52,105,95,82,68,9914,2146955556,2147518774,2147284059,2147441124,2147128868,2147259200,2148256018,2147164928,392,-1,8,52077
1371316271,5804,159.8699951171875000,19.8220005035400400,36.6594009399414060,222.0449066162109400,93.6928634643554700,19.8618106842041000,30.5576801300048830,54,104,95,80,66,9912,2146956955,2147526025,2147285339,2147444132,2147142226,2147323611,2148371739,2147170422,916,-2,9,46386
1371316326,5806,155.7100067138672000,19.9209003448486330,36.6576004028320300,226.6829986572265600,91.8111801147461000,19.9189491271972660,30.3004703521728500,56,103,96,80,66,9910,2146955748,2147525522,2147289910,2147441353,2147160283,2147385088,2148475712,2147176960,835,-1,9,19079
1371316404,5808,150.3899993896484400,20.0851001739501950,36.6772994995117200,225.4358062744140600,86.7251281738281200,20.0734596252441400,30.2955894470214840,58,105,96,82,67,9913,2146955913,2147526162,2147297289,2147442020,2147189083,2147483629,2148644525,2147186459,825,-1,8,58320
1371316471,5807,146.6399993896484400,20.2003002166748050,36.6834983825683600,224.0478973388672000,82.7126464843750000,20.1954097747802730,30.3123607635498050,60,104,95,80,66,9913,2146953563,2147533833,2147300141,2147439963,2147212425,2147566619,2148774454,2147196105,675,-1,9,53122
1371316538,5806,143.2200012207031200,20.3020000457763670,36.6851997375488300,224.3551025390625000,79.5598068237304700,20.2912807464599600,30.2559204101562500,60,101,96,81,66,9913,2146960283,2147532251,2147306980,2147442971,2147237193,2147647350,2148919442,2147203081,946,-1,8,39393
1371316617,5806,139.5700073242187500,20.3602008819580080,36.6861991882324200,224.8722991943359400,76.8376464843750000,20.3740901947021500,30.1946201324462900,59,103,95,81,67,9912,2146959460,2147536548,2147311588,2147443574,2147263012,2147715922,2149013531,2147210642,276,-2,8,63878
1371316710,5803,135.5800018310547000,20.4920005798339840,36.6771011352539060,227.3356933593750000,73.0793914794921900,20.4884490966796880,30.0237503051757800,66,107,94,82,66,9899,2146959085,2147518710,2147274806,2147439926,2147144877,2147189659,2148020708,2147151369,3319,-1,9,55244
1371316813,5803,131.8699951171875000,20.4710006713867200,36.6208000183105500,240.0121002197265600,73.7525863647461000,20.4679698944091800,29.4304790496826170,88,111,98,83,64,9870,2146961901,2147543341,2147321600,2147439762,2147346148,2147919378,2149373394,2147233197,1064,-2,9,17099
1371316952,5806,128.1999969482422000,20.5326995849609380,36.6034011840820300,247.9243011474609400,71.9233169555664000,20.5236492156982420,29.0504207611084000,105,119,99,84,65,9863,2146961252,2147543149,2147330971,2147439433,2147396973,2148033709,2149558006,2147247661,1187,-2,9,40391
1371317087,5802,123.6299972534179700,20.7061004638671880,36.6021003723144500,250.1770935058593800,66.5806808471679700,20.6863498687744140,28.8836193084716800,114,119,99,85,64,9855,2146966573,2147550784,2147345490,2147441444,2147495771,2148238454,2149902226,2147274459,1141,-1,9,52555
1371317190,5804,120.1399993896484400,20.8274993896484380,36.6101989746093750,250.1118011474609400,62.3006896972656250,20.8167705535888670,28.8323402404785160,117,124,101,88,64,9842,2146966966,2147558409,2147355794,2147437842,2147576722,2148392658,2150169984,2147294427,1101,-2,9,49830
1371317340,5806,115.5999984741211000,21.0011005401611330,36.5830993652343750,249.9956054687500000,56.8980598449707000,20.9815196990966800,28.7691192626953120,112,131,101,85,63,9832,2146970678,2147570029,2147371300,2147440411,2147715721,2148626560,2150523849,2147325613,216,-2,8,7739
1371317443,5808,111.7099990844726600,21.0606994628906250,36.5793991088867200,255.0028991699218800,54.2867317199707000,21.0611896514892580,28.5203800201416000,110,129,101,88,64,9839,2146974491,2147580086,2147392045,2147441334,2147897965,2148909961,2150918400,2147364736,490,-2,9,63827
1371317534,5806,107.5500030517578100,21.2928009033203120,36.5817985534668000,254.9584960937500000,47.5107688903808600,21.2680702209472660,28.4374008178710940,125,127,101,87,64,9829,2146982034,2147593289,2147416429,2147441846,2148187693,2149421833,2151608438,2147425645,87,-1,8,63331
1371317627,5807,103.2200012207031200,21.3771991729736330,36.5558013916015600,255.4436035156250000,44.3367996215820300,21.3650493621826170,28.3769607543945300,116,131,99,86,63,9814,2146988580,2147614025,2147449728,2147443501,2148528356,2149986450,2152389248,2147496731,14,-1,8,55125
1371317706,5804,99.9499969482421900,21.4468994140625000,36.5453987121582000,258.9454040527344000,41.6286010742187500,21.4478397369384770,28.1961002349853500,107,131,100,85,62,9823,2146997129,2147634697,2147474889,2147442249,2148920905,2150627154,2153191817,2147575744,2776,-2,8,27268
1371317761,5805,98.1399993896484400,21.5986003875732420,36.5406990051269500,259.9562988281250000,37.1878089904785160,21.5836505889892580,28.0989704132080080,108,124,102,86,60,9824,2147007926,2147651629,2147500818,2147444269,2149233572,2151117019,2153793618,2147637997,1965,-2,9,44640
1371317840,5807,96.5599975585937500,21.9325008392334000,36.5400009155273440,258.4224853515625000,26.8601207733154300,21.8998908996582030,28.0343894958496100,117,132,101,87,62,9812,2147009737,2147661970,2147528100,2147446464,2149441737,2151438619,2154193828,2147678857,847,-2,9,37402
1371318026,5805,94.1800003051757800,22.1487007141113280,36.5402984619140600,257.1076965332031000,19.2638492584228500,22.1328392028808600,27.9950504302978500,134,135,102,89,63,9773,2147017270,2147670509,2147536365,2147445632,2149657554,2151702363,2154537289,2147722038,526,-2,9,45824
1371318105,5802,92.2600021362304700,22.1881008148193360,36.5364990234375000,256.9067077636719000,17.7235298156738280,22.1801109313964840,27.9844093322753900,145,141,105,88,62,9789,2147023478,2147688768,2147573037,2147446610,2149966482,2152162816,2155149787,2147779593,605,-2,8,64968
1371318196,5806,90.3199996948242200,22.2131004333496100,36.5329017639160160,256.8020019531250000,16.8792095184326170,22.2060298919677730,27.9784297943115230,142,135,103,86,62,9787,2146981504,2147569526,2147355419,2147435547,2148149915,2148735378,2149969005,2147336585,117,-2,9,10897
1371318287,5805,87.8700027465820300,22.2639007568359380,36.5251007080078100,256.0054931640625000,15.0760097503662110,22.2613906860351560,27.9894008636474600,134,134,103,87,62,9781,2147013933,2147657371,2147502226,2147442569,2149637833,2151246473,2153479149,2147663360,3437,-2,9,14281
1371318342,5804,85.6399993896484400,22.4344997406005860,36.4987983703613300,256.3106994628906000,9.7652339935302730,22.4245491027832030,27.9109992980957030,132,135,102,87,61,9771,2147061202,2147774592,2147696018,2147454747,2151650203,2154591881,2158239030,2148132425,3480,-1,9,5715
1371318397,5804,83.5899963378906200,22.6637992858886720,36.5085983276367200,255.7348022460937500,3.2796978950500490,22.6240100860595700,27.8551902770996100,141,138,103,90,61,9733,2147084909,2147827712,2147806080,2147467657,2152760612,2156318592,2160521801,2148386944,777,-2,8,53410
1371318452,5807,81.9599990844726600,22.9909000396728500,36.5563011169433600,250.5167999267578000,-6.9557371139526370,22.9392795562744140,27.9494400024414060,186,142,101,87,63,9727,2147098953,2147851346,2147832137,2147467584,2153457243,2157307254,2161711387,2148525312,283,-2,8,182
1371318531,5803,80.4700012207031200,23.1035995483398440,36.5345993041992200,249.1638946533203000,-11.4659595489501950,23.0783996582031250,27.9518699645996100,189,139,101,87,64,9724,2147105645,2147865060,2147836873,2147465883,2153849974,2157805915,2162240932,2148596827,2847,-2,9,1007
1371318657,5805,78.3199996948242200,23.3425998687744140,36.5260009765625000,248.4620056152343800,-19.2681808471679700,23.3193492889404300,27.8857307434082030,188,148,103,89,63,9702,2147132361,2147915099,2147906779,2147468306,2154943460,2159235757,2163952283,2148819099,2923,-2,9,40193
1371318760,5807,76.6100006103515600,23.4712009429931640,36.4956016540527340,247.9895019531250000,-23.7347297668457030,23.4574604034423830,27.8510303497314450,184,167,102,90,63,9693,2147015734,2147632292,2147439771,2147434907,2149651373,2150562102,2151894637,2147566756,3235,-1,9,24009
1371318922,5805,74.3199996948242200,23.5911006927490230,36.4869995117187500,242.8760070800781200,-27.6409091949462900,23.5783405303955080,28.0258007049560550,180,154,103,88,63,9687,2147017060,2147635593,2147434633,2147435126,2149700864,2150505846,2151718061,2147561846,3172,-2,9,50297
1371318977,5809,72.6100006103515600,23.6870994567871100,36.4990997314453100,240.9974060058593800,-30.5219001770019530,23.6675605773925780,28.0733890533447270,186,162,104,89,62,9661,2147061184,2147735250,2147590253,2147442377,2151483309,2153067401,2154962048,2147931282,2786,-2,9,29847
1371319032,5809,70.7900009155273400,23.6728000640869140,36.4486007690429700,239.8202972412109400,-30.5645809173584000,23.6688804626464840,28.1255207061767580,189,150,103,90,63,9668,2147054061,2147718518,2147545042,2147441709,2151326043,2152684809,2154266642,2147875593,2822,-2,9,4046
1371319087,5804,69.1299972534179700,23.7224006652832030,36.4374008178710940,240.4956054687500000,-32.0886802673339840,23.7161006927490230,28.0761909484863280,177,148,105,91,62,9689,2147217243,2148069696,2148075538,2147486427,2158237714,2162816256,2167078372,2149452544,2527,-2,9,42087
1371319154,5805,67.4700012207031200,23.8194999694824220,36.4126014709472660,244.1289062500000000,-35.2035408020019500,23.8126602172851560,27.8773193359375000,145,145,104,88,64,9703,2147308928,2148258788,2148330395,2147507565,2161933522,2168105005,2173491858,2150216374,2791,-2,9,17432
1371319269,5806,65.2900009155273400,23.9629993438720700,36.3987007141113300,248.0444030761718800,-39.5698890686035160,23.9481201171875000,27.6540393829345700,101,139,103,89,63,9746,2147385892,2148419044,2148488027,2147520246,2165264704,2172379318,2177448640,2150728621,2695,-2,9,12166
1371319360,5804,63.3499984741210940,24.1198997497558600,36.3982009887695300,241.5021972656250000,-45.2165184020996100,24.1234798431396500,27.8695392608642580,93,141,104,90,62,9752,2147458587,2148561874,2148633609,2147528530,2168252077,2175987492,2180571382,2151120411,2580,-2,9,50070
1371319439,5803,60.9099998474121100,24.4234008789062500,36.3964004516601560,246.9411926269531200,-54.0422401428222660,24.3980197906494140,27.5241794586181640,88,137,101,88,63,9753,2147538368,2148716379,2148795218,2147543030,2171687067,2180401801,2184793453,2151694281,3099,-2,9,22241
1371319541,5803,59.1199989318847660,24.4803009033203120,36.3875007629394500,241.8589019775390600,-56.7351989746093750,24.4818992614746100,27.7120990753173830,85,133,102,86,62,9754,2147606628,2148859017,2148942738,2147556626,2174926976,2184469476,2188524379,2152254025,2536,-2,9,25454
1371319620,5807,57.2299995422363300,24.5571002960205080,36.3629989624023440,246.2248992919922000,-59.2636108398437500,24.5606994628906250,27.4911308288574220,82,135,101,89,63,9757,2147721444,2149075766,2149196315,2147585984,2179818422,2190414418,2193864786,2153036681,1862,-1,9,30540
1371319687,5801,55.2999992370605500,24.7273006439209000,36.2722015380859400,250.5408020019531200,-64.1055603027343800,24.7117290496826170,27.2482299804687500,78,132,102,88,65,9744,2147832448,2149277915,2149478134,2147653650,2183389942,2194471698,2197287789,2153549147,1280,-2,9,5840
1371319888,5806,53.8600006103515600,24.7458992004394530,36.2705993652343750,289.5456848144531000,-65.3756332397461000,24.7513694763183600,25.7243003845214840,77,131,100,88,61,9742,2147937435,2149472841,2149660498,2147672164,2187936914,2199908050,2202118619,2154257627,1404,-1,9,48559
1371319957,5806,51.8199996948242200,24.7709999084472660,36.2631988525390600,274.8811035156250000,-66.0509796142578100,24.7724609375000000,26.2540302276611330,73,128,102,88,60,9748,2147671890,2148829531,2148733266,2147578642,2177860992,2184396918,2183323163,2151744210,1045,-2,9,10052
1371320026,5803,49.8199996948242200,24.7798004150390620,36.2583007812500000,261.3562011718750000,-66.6282806396484400,24.7904891967773440,26.7734508514404300,74,129,101,87,59,9746,2148267547,2150025435,2150147245,2147740205,2202241508,2215974665,2214781668,2156120950,635,-2,8,43826
1371320179,5805,47.8800010681152340,25.4708995819091800,36.1977996826171900,276.0723876953125000,-86.3184661865234400,25.4068393707275400,25.9685401916503900,74,126,100,86,61,9736,2148450102,2150326912,2150409088,2147792064,2211007168,2225533028,2221738422,2157176283,693,-1,8,24870
1371320571,5805,45.9599990844726560,26.1235008239746100,36.1155014038085940,289.1856994628906000,-107.9278030395507800,26.0867996215820300,25.2376594543457030,67,126,101,88,61,9749,2148717028,2150829302,2150919561,2147889618,2222508269,2238870180,2232055497,2158436416,1068,-2,8,52183
1371320842,5806,43.7999992370605500,26.1630001068115230,36.1116981506347660,247.1947021484375000,-110.6158981323242200,26.1716499328613280,26.8256607055664060,64,122,99,85,60,9756,2148951908,2151165376,2151009124,2147808274,2233813878,2251241691,2241160576,2159975890,281,0,9,37825
1371320911,5804,41.6500015258789060,26.1692008972167970,36.1105003356933600,249.9597930908203000,-110.8498992919921900,26.1790409088134770,26.7066898345947270,62,122,101,85,62,9754,2148050322,2149382372,2148996507,2147554514,2191678509,2196185371,2187548918,2152159369,3249,-2,8,44915
1371320956,5808,39.7700004577636700,26.1702003479003900,36.1102981567382800,249.7696990966797000,-110.8716964721679700,26.1797294616699220,26.7144298553466800,64,123,99,85,63,9759,2149368685,2151801645,2151377554,2147813403,2253228379,2271362102,2255500397,2162675648,3022,-1,9,1120